Tracking 18794 objects as of 22-September-2017
HD Live streaming from Space Station
objects crossing your sky now

BIRD JJ

Track BIRD JJ now!
10-day predictions
BIRD JJ is classified as:


NORAD ID: 42820
Int'l Code: 1998-067MU
Perigee: 402.1 km
Apogee: 404.3 km
Inclination: 51.6 °
Period: 92.5 minutes
Semi major axis: 6774 km
RCS: Unknown
Launch date: November 20, 1998
Source: Japan (JPN)
Launch site: TYURATAM MISSILE AND SPACE COMPLEX (TTMTR)
Uplink (MHz):
Downlink (MHz): 437.375
Beacon (MHz): 437.372
Mode: 1k2AFSK 9k6GMSK CW
Call sign: JG6YJO
Status: Active

aabbcc
Your satellite tracking list
Your tracking list is empty





NASA's NSSDC Master Catalog

Two Line Element Set (TLE):
1 42820U 98067MU  17264.40835604 +.00012140 +00000-0 +17083-3 0  9996
2 42820 051.6383 277.7335 0001618 256.4108 103.6704 15.57096360011858
Source of the keplerian elements: AFSPC